Date String (YYYY-MM-DD hh:mm:ss) UTC,Instrument flags,Ambient pressure (hPa),Sample flow (lpm),Bypass flow (lpm),Sample temperature (°C),Ambient temperature (°C),ASC tube jacket temperature (°C),LED temperature (°C),Box temperature (°C),Sample RH (%),Span deviation,Mass concentration (μg/m³),Mass concentration (μg/m³),Mass concentration (μg/m³)
DateTimeUTC,F1_M11,P_M11,Q1_M11,Q2_M11,T1_M11,T2_M11,T3_M11,T4_M11,T5_M11,U1_M11,ZSPAN_M11,X0_M11,X2_M11,X1_M11
2021-10-17 06:00:00,,0832.7,4.99,0.00,29.0,27.8,00.0,38.2,30.6,09.7,0000.0,0008.58,0004.42,0003.81
2021-10-17 06:01:00,,0832.7,5.00,0.00,28.9,27.8,00.0,38.2,30.6,09.6,0000.0,0008.74,0004.39,0003.78
2021-10-17 06:02:00,,0832.7,5.01,0.00,28.9,27.8,00.0,38.1,30.6,09.7,0000.0,0009.23,0004.35,0003.75
2021-10-17 06:03:00,,0832.7,4.98,0.00,28.9,27.8,00.0,38.1,30.6,09.7,0000.0,0008.65,0004.33,0003.72
2021-10-17 06:04:00,,0832.7,5.00,0.00,28.9,27.8,00.0,38.1,30.6,09.7,0000.0,0008.65,0004.32,0003.71
2021-10-17 06:05:00,,0832.7,5.01,0.00,28.9,27.8,00.0,38.1,30.6,09.7,0000.0,0008.62,0004.30,0003.68
2021-10-17 06:06:00,,0832.7,4.98,0.00,28.9,27.8,00.0,38.1,30.6,09.7,0000.0,0008.56,0004.27,0003.66
2021-10-17 06:07:00,,0832.7,5.00,0.00,28.9,27.8,00.0,38.1,30.6,09.7,0000.0,0008.42,0004.24,0003.65
2021-10-17 06:08:00,,0832.7,5.01,0.00,28.9,27.8,00.0,38.1,30.6,09.7,0000.0,0008.31,0004.19,0003.62
2021-10-17 06:09:00,,0832.7,5.01,0.00,28.9,27.7,00.0,38.1,30.6,09.7,0000.0,0008.57,0004.20,0003.60
2021-10-17 06:10:00,,0832.7,4.99,0.00,28.9,27.7,00.0,38.1,30.6,09.7,0000.0,0008.65,0004.20,0003.58
2021-10-17 06:11:00,,0832.6,5.00,0.00,28.9,27.7,00.0,38.1,30.6,09.7,0000.0,0008.93,0004.20,0003.57
2021-10-17 06:12:00,,0832.6,5.00,0.00,28.9,27.7,00.0,38.1,30.6,09.7,0000.0,0008.67,0004.20,0003.56
2021-10-17 06:13:00,,0832.6,5.00,0.00,28.9,27.7,00.0,38.1,30.6,09.7,0000.0,0008.37,0004.20,0003.56
2021-10-17 06:14:00,,0832.6,5.00,0.00,28.9,27.7,00.0,38.1,30.5,09.7,0000.0,0008.71,0004.13,0003.56
2021-10-17 06:15:00,,0832.6,4.98,0.00,28.9,27.7,00.0,38.1,30.5,09.7,0000.0,0008.64,0004.11,0003.54
2021-10-17 06:16:00,,0832.6,5.01,0.00,28.9,27.7,00.0,38.1,30.5,09.7,0000.0,0009.43,0004.12,0003.54
2021-10-17 06:17:00,,0832.6,4.99,0.00,28.9,27.7,00.0,38.1,30.5,09.7,0000.0,0009.97,0004.17,0003.54
2021-10-17 06:18:00,,0832.6,5.00,0.00,28.8,27.7,00.0,38.0,30.5,09.7,0000.0,0010.21,0004.16,0003.53
2021-10-17 06:19:00,,0832.6,5.00,0.00,28.8,27.7,00.0,38.0,30.5,09.7,0000.0,0010.18,0004.15,0003.52
2021-10-17 06:20:00,,0832.6,5.00,0.00,28.8,27.7,00.0,38.0,30.5,09.7,0000.0,0010.02,0004.13,0003.51
2021-10-17 06:21:00,,0832.5,4.99,0.00,28.8,27.7,00.0,38.0,30.5,09.7,0000.0,0010.66,0004.11,0003.50
2021-10-17 06:22:00,,0832.6,5.00,0.00,28.8,27.7,00.0,38.0,30.5,09.7,0000.0,0010.36,0004.06,0003.48
2021-10-17 06:23:00,,0832.5,5.00,0.00,28.8,27.7,00.0,38.0,30.5,09.7,0000.0,0010.91,0004.05,0003.47
2021-10-17 06:24:00,,0832.5,5.01,0.00,28.8,27.7,00.0,38.0,30.5,09.7,0000.0,0011.12,0004.03,0003.46
2021-10-17 06:25:00,,0832.5,4.98,0.00,28.8,27.7,00.0,38.0,30.5,09.7,0000.0,0010.43,0004.02,0003.45
2021-10-17 06:26:00,,0832.5,5.01,0.00,28.8,27.7,00.0,38.0,30.5,09.7,0000.0,0010.39,0004.01,0003.44
2021-10-17 06:27:00,,0832.5,5.00,0.00,28.8,27.7,00.0,38.0,30.5,09.7,0000.0,0009.85,0004.02,0003.43
2021-10-17 06:28:00,,0832.5,4.98,0.00,28.8,27.7,00.0,38.0,30.5,09.7,0000.0,0009.83,0003.97,0003.41
2021-10-17 06:29:00,,0832.6,5.01,0.00,28.8,27.8,00.0,38.0,30.5,09.7,0000.0,0010.05,0003.93,0003.40
2021-10-17 06:30:00,,0832.5,5.00,0.00,28.8,27.7,00.0,38.0,30.5,09.7,0000.0,0010.62,0003.97,0003.40
2021-10-17 06:31:00,,0832.6,5.01,0.00,28.8,27.7,00.0,38.0,30.5,09.7,0000.0,0011.83,0003.97,0003.40
2021-10-17 06:32:00,,0832.5,5.00,0.00,28.8,27.7,00.0,38.0,30.5,09.7,0000.0,0011.30,0003.96,0003.38
2021-10-17 06:33:00,,0832.5,4.99,0.00,28.8,27.7,00.0,38.0,30.5,09.7,0000.0,0011.38,0003.98,0003.38
2021-10-17 06:34:00,,0832.5,5.02,0.00,28.8,27.7,00.0,38.0,30.5,09.7,0000.0,0011.20,0003.97,0003.38
2021-10-17 06:35:00,,0832.5,5.00,0.00,28.8,27.7,00.0,38.0,30.5,09.7,0000.0,0010.89,0004.02,0003.37
2021-10-17 06:36:00,,0832.5,5.00,0.00,28.8,27.7,00.0,38.0,30.5,09.7,0000.0,0011.16,0004.01,0003.37
2021-10-17 06:37:00,,0832.5,5.00,0.00,28.8,27.7,00.0,38.0,30.5,09.7,0000.0,0012.80,0004.04,0003.37
2021-10-17 06:38:00,,0832.5,5.01,0.00,28.8,27.7,00.0,38.0,30.4,09.7,0000.0,0012.86,0004.04,0003.37
2021-10-17 06:39:00,,0832.5,5.00,0.00,28.8,27.7,00.0,37.9,30.5,09.7,0000.0,0012.60,0004.04,0003.37
2021-10-17 06:40:00,,0832.4,5.01,0.00,28.8,27.7,00.0,37.9,30.4,09.7,0000.0,0012.00,0004.05,0003.36
2021-10-17 06:41:00,,0832.5,5.00,0.00,28.7,27.7,00.0,37.9,30.4,09.7,0000.0,0011.79,0004.05,0003.34
2021-10-17 06:42:00,,0832.4,5.00,0.00,28.7,27.7,00.0,37.9,30.4,09.7,0000.0,0010.32,0003.99,0003.31
2021-10-17 06:43:00,,0832.4,4.99,0.00,28.7,27.7,00.0,37.9,30.5,09.7,0000.0,0010.28,0003.98,0003.31
2021-10-17 06:44:00,,0832.5,4.99,0.00,28.7,27.7,00.0,37.9,30.5,09.8,0000.0,0010.27,0003.96,0003.30
2021-10-17 06:45:00,,0832.5,4.99,0.00,28.7,27.7,00.0,37.9,30.5,09.9,0000.0,0010.25,0003.94,0003.29
2021-10-17 06:46:00,,0832.5,5.01,0.00,28.7,27.7,00.0,37.9,30.5,09.9,0000.0,0009.88,0003.89,0003.27
2021-10-17 06:47:00,,0832.5,4.98,0.00,28.7,27.7,00.0,37.9,30.5,09.8,0000.0,0009.56,0003.88,0003.25
2021-10-17 06:48:00,,0832.5,5.00,0.00,28.7,27.7,00.0,37.9,30.4,09.8,0000.0,0008.07,0003.88,0003.23
2021-10-17 06:49:00,,0832.5,5.00,0.00,28.7,27.7,00.0,37.9,30.4,09.8,0000.0,0008.02,0003.86,0003.20
2021-10-17 06:50:00,,0832.5,5.01,0.00,28.7,27.7,00.0,37.9,30.4,09.8,0000.0,0007.96,0003.83,0003.19
2021-10-17 06:51:00,,0832.5,5.01,0.00,28.7,27.7,00.0,37.9,30.4,09.8,0000.0,0007.76,0003.79,0003.17
2021-10-17 06:52:00,,0832.5,4.99,0.00,28.7,27.7,00.0,37.9,30.4,09.8,0000.0,0007.61,0003.75,0003.17
2021-10-17 06:53:00,,0832.5,4.99,0.00,28.7,27.6,00.0,37.9,30.4,09.8,0000.0,0007.65,0003.76,0003.17
2021-10-17 06:54:00,,0832.5,5.00,0.00,28.7,27.6,00.0,37.8,30.4,09.8,0000.0,0007.83,0003.73,0003.17
2021-10-17 06:55:00,,0832.5,4.99,0.00,28.7,27.6,00.0,37.8,30.4,09.8,0000.0,0008.18,0003.73,0003.16
2021-10-17 06:56:00,,0832.5,5.00,0.00,28.7,27.7,00.0,37.8,30.4,09.8,0000.0,0008.50,0003.73,0003.15
2021-10-17 06:57:00,,0832.5,5.01,0.00,28.7,27.7,00.0,37.8,30.4,09.8,0000.0,0008.47,0003.74,0003.15
2021-10-17 06:58:00,,0832.5,5.01,0.00,28.7,27.7,00.0,37.8,30.4,09.8,0000.0,0008.50,0003.74,0003.14
2021-10-17 06:59:00,,0832.5,4.99,0.00,28.7,27.7,00.0,37.8,30.4,09.8,0000.0,0008.52,0003.75,0003.14
